Monterey, CA

11:26 PM PDT on August 19, 2017 (GMT -0700)
Monterey Peninsula

Weather History for KMRY - October, 2013

Change the Weather History Date:

Tuesday, October 8, 2013

  Actual Average Record
Temperature  
Mean Temperature 58 °F 59 °F  
Max Temperature 65 °F 68 °F 82 °F (1999)
Min Temperature 51 °F 51 °F 45 °F (1948)
Degree Days  
Heating Degree Days 7    
Month to date heating degree days 35  
Since 1 July heating degree days 284  
Cooling Degree Days 0    
Month to date cooling degree days 13  
Year to date cooling degree days 48  
Growing Degree Days 8 (Base 50)    
Moisture  
Dew Point 49 °F    
Average Humidity 75    
Maximum Humidity 89    
Minimum Humidity 60    
Precipitation  
Precipitation 0.00 in - 0.01 in (2004)
Month to date precipitation 0.00  
Year to date precipitation 3.28  
Since 1 July precipitation 0.13  
Sea Level Pressure  
Sea Level Pressure 29.91 in    
Wind  
Wind Speed 7 mph (SSW)    
Max Wind Speed 17 mph    
Max Gust Speed 21 mph    
Visibility 9 miles    
Events      
T = Trace of Precipitation, MM = Missing Value Source: NWS Daily Summary

Daily Weather History Graph

Daily Weather History Graph

Search for Another Location

Airport or City:

Trip Planner

Search our weather history database for the weather conditions in past years. The results will help you decide how hot, cold, wet, or windy it might be!

Date:

Astronomy

Oct. 08, 2013 Rise Set
Actual Time 7:08 AM PDT 6:40 PM PDT
Civil Twilight 6:42 AM PDT 7:06 PM PDT
Nautical Twilight 6:13 AM PDT 7:35 PM PDT
Astronomical Twilight 5:43 AM PDT 8:05 PM PDT
Moon 11:02 AM PDT (10/8) 9:27 PM PDT (10/8)
Length of Visible Light 12h 23m
Length of Day
11h 31m
Waxing Crescent, 17% of the Moon is Illuminated
Oct 8
Waxing Crescent
Oct 11
First Quarter
Oct 18
Full
Oct 26
Last Quarter
Nov 3
New

Hourly Weather History & Observations

Time (PDT) Temp. Dew Point Humidity Pressure Visibility Wind Dir Wind Speed Gust Speed Precip Events Conditions
12:54 AM 53.1 °F 48.0 °F 83% 29.97 in 10.0 mi Calm Calm - N/A   Clear
1:54 AM 52.0 °F 44.1 °F 74% 29.97 in 10.0 mi South 3.5 mph - N/A   Clear
2:54 AM 53.1 °F 48.9 °F 86% 29.97 in 9.0 mi South 4.6 mph - N/A   Clear
3:54 AM 53.1 °F 48.9 °F 86% 29.96 in 9.0 mi South 4.6 mph - N/A   Clear
4:42 AM 53.6 °F 48.2 °F 82% 29.92 in 9.0 mi Calm Calm - N/A   Mostly Cloudy
4:49 AM 53.6 °F 48.2 °F 82% 29.91 in 9.0 mi Calm Calm - N/A   Scattered Clouds
4:54 AM 52.0 °F 48.0 °F 86% 29.95 in 9.0 mi Calm Calm - N/A   Partly Cloudy
5:27 AM 53.6 °F 48.2 °F 82% 29.92 in 9.0 mi SSW 5.8 mph - N/A   Mostly Cloudy
5:54 AM 53.1 °F 48.9 °F 86% 29.96 in 9.0 mi SSW 6.9 mph - N/A   Overcast
6:54 AM 52.0 °F 48.0 °F 86% 29.95 in 9.0 mi SSE 3.5 mph - N/A   Overcast
7:17 AM 51.8 °F 48.2 °F 88% 29.91 in 7.0 mi Calm Calm - N/A   Scattered Clouds
7:39 AM 51.8 °F 48.2 °F 88% 29.92 in 8.0 mi SE 3.5 mph - N/A   Mostly Cloudy
7:54 AM 53.1 °F 50.0 °F 89% 29.96 in 8.0 mi Calm Calm - N/A   Overcast
8:25 AM 55.4 °F 50.0 °F 82% 29.92 in 8.0 mi Calm Calm - N/A   Scattered Clouds
8:54 AM 55.9 °F 50.0 °F 80% 29.96 in 8.0 mi Calm Calm - N/A   Clear
9:54 AM 60.1 °F 50.0 °F 69% 29.95 in 10.0 mi West 6.9 mph - N/A   Clear
10:54 AM 60.1 °F 50.0 °F 69% 29.95 in 9.0 mi Variable 4.6 mph - N/A   Clear
11:54 AM 63.0 °F 50.0 °F 63% 29.94 in 10.0 mi WNW 6.9 mph - N/A   Clear
12:54 PM 64.0 °F 50.0 °F 60% 29.93 in 10.0 mi SW 12.7 mph - N/A   Clear
1:54 PM 63.0 °F 48.9 °F 60% 29.91 in 10.0 mi SSW 8.1 mph - N/A   Clear
2:54 PM 60.1 °F 50.0 °F 69% 29.90 in 10.0 mi SW 13.8 mph - N/A   Clear
3:54 PM 59.0 °F 50.0 °F 72% 29.90 in 10.0 mi SSW 10.4 mph - N/A   Clear
4:54 PM 57.9 °F 48.9 °F 72% 29.90 in 10.0 mi SSW 11.5 mph - N/A   Mostly Cloudy
5:50 PM 57.2 °F 48.2 °F 72% 29.85 in 9.0 mi SW 11.5 mph - N/A   Scattered Clouds
5:54 PM 57.0 °F 48.0 °F 72% 29.88 in 9.0 mi SSW 10.4 mph - N/A   Scattered Clouds
6:54 PM 55.0 °F 48.0 °F 77% 29.87 in 9.0 mi SW 9.2 mph - N/A   Scattered Clouds
7:01 PM 55.4 °F 48.2 °F 77% 29.84 in 9.0 mi SSW 12.7 mph - N/A   Overcast
7:54 PM 55.0 °F 48.0 °F 77% 29.86 in 9.0 mi SW 10.4 mph 18.4 mph N/A   Overcast
8:54 PM 55.9 °F 48.9 °F 77% 29.86 in 9.0 mi SSW 8.1 mph - N/A   Overcast
9:54 PM 55.9 °F 48.9 °F 77% 29.86 in 9.0 mi SSW 9.2 mph - N/A   Overcast
10:54 PM 55.0 °F 48.9 °F 80% 29.83 in 8.0 mi SSW 9.2 mph - N/A   Overcast
11:54 PM 55.9 °F 48.9 °F 77% 29.82 in 8.0 mi SW 10.4 mph 18.4 mph N/A   Overcast